"Pseudo-MPEC" for P2163Ec

Created 2020 Sep 19 21:07:42 UT using Find_Orb

Click here for an explanation of pseudo-MPECs

 
 Astrometry: 
     P2163Ec  C2020 09 14hkg)]=\fG-le`Vxm[^qvhLFAstrometryo.l/plh;4KRQ-?xoec/F52
     P2163Ec  C2020 09 14A;WSs-BSk.dJWC?knqBVjtK07ZQSredacted;]b,0clicko(0#ssF52
     P2163Ec  C2020 09 14#M]WQnJ_oB[KfUPPm0(GhereD`X:iforB=;tjyQumexplanationF52

Station data:
(F52) Pan-STARRS 2, Haleakala  (N20.707384 W156.255910)  US/Hawaii. 1.8-m
   Ritchey-Chrétien + CCD.

Orbital elements:  P2163Ec
   Perihelion 2020 Jul 30.433890 +/- 35.5 TT = 10:24:48 (JD 2459060.933890)
Epoch 2020 Sep 14.0 TT = JDT 2459106.5   Earth MOID: 0.0113   AutoNEOCP
M  40.20028323 +/- 25               (J2000 ecliptic)
n   0.88224084 +/- 0.449            Peri.  317.28695 +/- 60
a   1.07665842 +/- 0.365            Node   348.03466 +/- 40
e   0.0688134 +/- 0.255             Incl.    5.47687 +/- 11
P   1.12/408.04d           H 28.1   G  0.15   U 12.2  SR
q 1.00256987 +/- 0.241    Q 1.15074696 +/- 34.1
From 3 observations 2020 Sept. 14 (47.2 min); mean residual 0".19
Residuals in arcseconds: 
200914 F52  .25+  .00     200914 F52  .38-  .00     200914 F52  .12+  .00     

Ephemerides (geocentric):
Date (UTC) HH   RA              Dec         delta   r     elong  mag " sig PA
---- -- -- --  -------------   -----------  ------ ------ -----  --- ---- ---
2020 09 19 21  21 48 22.846   +20 01 49.26  .02844 1.0274 143.6 21.9  47d 173
2020 09 19 22  21 48 26.923   +20 06 37.23  .02851 1.0274 143.5 21.9  47d 173
2020 09 19 23  21 48 30.992   +20 11 23.58  .02859 1.0274 143.5 21.9  47d 173
2020 09 20 00  21 48 35.054   +20 16 08.30  .02867 1.0275 143.4 21.9  47d 174
2020 09 20 01  21 48 39.108   +20 20 51.41  .02875 1.0275 143.4 21.9  47d 174
2020 09 20 02  21 48 43.154   +20 25 32.93  .02882 1.0276 143.3 21.9  47d 174
2020 09 20 03  21 48 47.193   +20 30 12.85  .02890 1.0276 143.3 21.9  47d 174
2020 09 20 04  21 48 51.225   +20 34 51.20  .02898 1.0276 143.2 21.9  47d 174
2020 09 20 05  21 48 55.249   +20 39 27.98  .02905 1.0277 143.2 21.9  47d 174
2020 09 20 06  21 48 59.267   +20 44 03.20  .02913 1.0277 143.1 21.9  47d 174
2020 09 20 07  21 49 03.277   +20 48 36.89  .02921 1.0277 143.1 21.9  47d 174
2020 09 20 08  21 49 07.280   +20 53 09.03  .02929 1.0278 143.0 21.9  47d 175
2020 09 20 09  21 49 11.276   +20 57 39.66  .02937 1.0278 143.0 21.9  47d 175
2020 09 20 10  21 49 15.265   +21 02 08.77  .02944 1.0279 143.0 22.0  47d 175
2020 09 20 11  21 49 19.248   +21 06 36.39  .02952 1.0279 142.9 22.0  47d 175
2020 09 20 12  21 49 23.223   +21 11 02.51  .02960 1.0279 142.9 22.0  47d 175
2020 09 20 13  21 49 27.192   +21 15 27.15  .02968 1.0280 142.8 22.0  47d 175
2020 09 20 14  21 49 31.155   +21 19 50.32  .02975 1.0280 142.8 22.0  47d 175
2020 09 20 15  21 49 35.110   +21 24 12.03  .02983 1.0280 142.7 22.0  47d 175
2020 09 20 16  21 49 39.059   +21 28 32.30  .02991 1.0281 142.7 22.0  47d 175
2020 09 20 17  21 49 43.002   +21 32 51.12  .02999 1.0281 142.6 22.0  47d 175
2020 09 20 18  21 49 46.938   +21 37 08.51  .03007 1.0282 142.6 22.0  47d 175
2020 09 20 19  21 49 50.868   +21 41 24.48  .03015 1.0282 142.5 22.0  47d 176
2020 09 20 20  21 49 54.791   +21 45 39.05  .03022 1.0282 142.5 22.0  47d 176
2020 09 20 21  21 49 58.709   +21 49 52.21  .03030 1.0283 142.5 22.0  47d 176
2020 09 20 22  21 50 02.620   +21 54 03.98  .03038 1.0283 142.4 22.0  47d 176
2020 09 20 23  21 50 06.525   +21 58 14.38  .03046 1.0283 142.4 22.0  47d 176
2020 09 21 00  21 50 10.424   +22 02 23.40  .03054 1.0284 142.3 22.0  47d 176
2020 09 21 01  21 50 14.317   +22 06 31.06  .03062 1.0284 142.3 22.1  47d 176
2020 09 21 02  21 50 18.204   +22 10 37.36  .03070 1.0284 142.2 22.1  47d 176
2020 09 21 03  21 50 22.085   +22 14 42.32  .03078 1.0285 142.2 22.1  47d 176
2020 09 21 04  21 50 25.960   +22 18 45.95  .03085 1.0285 142.1 22.1  47d 176
2020 09 21 05  21 50 29.830   +22 22 48.26  .03093 1.0286 142.1 22.1  47d 176
2020 09 21 06  21 50 33.693   +22 26 49.24  .03101 1.0286 142.1 22.1  47d 176
2020 09 21 07  21 50 37.551   +22 30 48.92  .03109 1.0286 142.0 22.1  47d 176
2020 09 21 08  21 50 41.404   +22 34 47.31  .03117 1.0287 142.0 22.1  47d 176
2020 09 21 09  21 50 45.250   +22 38 44.40  .03125 1.0287 141.9 22.1  47d 176
2020 09 21 10  21 50 49.092   +22 42 40.21  .03133 1.0287 141.9 22.1  47d 176
2020 09 21 11  21 50 52.927   +22 46 34.76  .03141 1.0288 141.8 22.1  48d 175
2020 09 21 12  21 50 56.758   +22 50 28.03  .03149 1.0288 141.8 22.1  48d 175
2020 09 21 13  21 51 00.583   +22 54 20.06  .03157 1.0289 141.8 22.1  48d 175
2020 09 21 14  21 51 04.402   +22 58 10.83  .03165 1.0289 141.7 22.1  48d 175
2020 09 21 15  21 51 08.217   +23 02 00.37  .03173 1.0289 141.7 22.1  48d 175
2020 09 21 16  21 51 12.026   +23 05 48.68  .03181 1.0290 141.6 22.2  48d 175
2020 09 21 17  21 51 15.830   +23 09 35.77  .03188 1.0290 141.6 22.2  49d 175
2020 09 21 18  21 51 19.628   +23 13 21.65  .03196 1.0291 141.6 22.2  49d 175
2020 09 21 19  21 51 23.422   +23 17 06.32  .03204 1.0291 141.5 22.2  49d 175
2020 09 21 20  21 51 27.211   +23 20 49.80  .03212 1.0291 141.5 22.2  49d 175